AC3KO-13 Weather Reports


time (UTC)temp
F
wind
direction
speed
knots
gust
knots
rain 1hr
in
rain 24hr
in
rain mn
in
humidity
%
barometer
mb
20260906035921 62 113 0.0 0.0 0.00 0.00 0.00 96 1013.8
20260906035421 62 225 0.0 0.0 0.00 0.00 0.00 96 1013.7
20260906034922 62 277 0.0 0.0 0.00 0.00 0.00 96 1013.7
20260906034422 62 306 0.0 0.0 0.00 0.00 0.00 96 1013.7
20260906033922 62 186 0.0 0.0 0.00 0.00 0.00 96 1013.6
20260906033422 62 247 0.0 0.0 0.00 0.00 0.00 96 1013.6
20260906032924 62 259 0.0 0.0 0.00 0.00 0.00 96 1013.6
20260906032422 62 263 0.0 0.0 0.00 0.00 0.00 96 1013.7
20260906031922 62 277 0.0 0.0 0.00 0.00 0.00 96 1013.6
20260906031422 62 263 0.0 0.0 0.00 0.00 0.00 95 1013.6
20260906030422 63 270 0.0 0.0 0.00 0.00 0.00 95 1013.5
20260906014422 65 0.0 0.0 0.00 0.00 0.00 91 1012.7
20260906013922 65 0.0 0.0 0.00 0.00 0.00 91 1012.6
20260906013422 65 127 0.0 0.0 0.00 0.00 0.00 91 1012.6
20260906012922 66 0.0 0.0 0.00 0.00 0.00 91 1012.5
20260906012422 66 0.0 0.0 0.00 0.00 0.00 90 1012.5
20260906011924 66 0.0 0.0 0.00 0.00 0.00 90 1012.6
20260906011422 66 0.0 0.0 0.00 0.00 0.00 90 1012.4
20260906002422 69 0.0 0.0 0.00 0.00 0.00 87 1012.0
20260906001922 69 0.0 0.0 0.00 0.00 0.00 87 1012.1
20260906001421 70 0.0 0.0 0.00 0.00 0.00 84 1012.0
20260906000922 70 0.0 0.0 0.00 0.00 0.00 84 1011.9
20260906000422 71 270 0.0 0.0 0.00 0.00 0.00 83 1011.8
20260905235922 71 270 0.0 0.0 0.00 0.00 0.00 82 1011.8
20260905234921 72 281 0.0 0.0 0.00 0.00 0.00 78 1011.7
20260905234421 73 285 0.0 0.0 0.00 0.00 0.00 78 1011.7
20260905233922 74 270 0.0 0.0 0.00 0.00 0.00 76 1011.7
20260905232922 76 259 0.0 0.0 0.00 0.00 0.00 71 1011.7
20260905232422 77 270 0.0 0.0 0.00 0.00 0.00 71 1011.7
20260905231922 77 281 0.0 0.0 0.00 0.00 0.00 66 1011.6
20260905230922 78 270 0.9 0.0 0.00 0.00 0.00 69 1011.4
20260905225422 78 182 0.0 0.0 0.00 0.00 0.00 67 1011.5
20260905224921 78 262 0.0 0.0 0.00 0.00 0.00 66 1011.4
20260905224422 79 204 0.0 0.0 0.00 0.00 0.00 62 1011.3
20260905223922 80 120 0.0 0.0 0.00 0.00 0.00 59 1011.4
20260905223422 81 225 0.0 0.0 0.00 0.00 0.00 60 1011.5
20260905221922 81 225 0.9 0.0 0.00 0.00 0.00 57 1011.3
20260905221422 81 149 1.7 0.0 0.00 0.00 0.00 57 1011.3
20260905220922 80 101 1.7 0.0 0.00 0.00 0.00 60 1011.2
20260905220422 80 202 1.7 0.0 0.00 0.00 0.00 58 1011.3
20260905215922 80 241 0.9 0.0 0.00 0.00 0.00 58 1011.2
20260905214921 81 291 0.9 0.0 0.00 0.00 0.00 59 1011.2
20260905214422 81 345 1.7 0.0 0.00 0.00 0.00 56 1011.2
20260905213921 82 180 0.0 0.0 0.00 0.00 0.00 55 1011.1
20260905212922 82 293 0.0 0.0 0.00 0.00 0.00 57 1011.1
20260905211422 84 270 1.7 0.0 0.00 0.00 0.00 54 1011.1
20260905210922 83 293 1.7 0.0 0.00 0.00 0.00 54 1011.1
20260905210422 84 283 1.7 0.0 0.00 0.00 0.00 52 1011.0
20260905205922 84 277 0.9 0.0 0.00 0.00 0.00 54 1011.0
20260905205422 84 283 2.6 0.0 0.00 0.00 0.00 53 1011.1
20260905204922 84 297 2.6 0.0 0.00 0.00 0.00 51 1011.1
20260905204422 84 339 0.9 0.0 0.00 0.00 0.00 51 1011.1
20260905203922 84 239 2.6 0.0 0.00 0.00 0.00 52 1011.1
20260905203422 84 293 2.6 0.0 0.00 0.00 0.00 55 1011.1
20260905202921 84 216 2.6 0.0 0.00 0.00 0.00 53 1011.2
20260905202422 86 214 2.6 0.0 0.00 0.00 0.00 53 1011.1
20260905201921 85 37 0.9 0.0 0.00 0.00 0.00 53 1011.2
20260905201421 84 270 2.6 0.0 0.00 0.00 0.00 51 1011.3
20260905200921 85 231 2.6 0.0 0.00 0.00 0.00 51 1011.3
20260905200422 85 191 2.6 0.0 0.00 0.00 0.00 52 1011.2
20260905195921 84 255 2.6 0.0 0.00 0.00 0.00 54 1011.2
20260905195421 84 334 2.6 0.0 0.00 0.00 0.00 53 1011.3
20260905194422 84 357 2.6 0.0 0.00 0.00 0.00 52 1011.3
20260905193921 84 283 1.7 0.0 0.00 0.00 0.00 55 1011.3
20260905193421 83 234 1.7 0.0 0.00 0.00 0.00 56 1011.3
20260905192922 82 132 3.5 0.0 0.00 0.00 0.00 56 1011.4
20260905192422 80 230 0.9 0.0 0.00 0.00 0.00 60 1011.3
20260905191922 81 130 1.7 0.0 0.00 0.00 0.00 60 1011.4
20260905191422 83 105 1.7 0.0 0.00 0.00 0.00 57 1011.4
20260905190921 85 124 3.5 0.0 0.00 0.00 0.00 56 1011.3
20260905190421 84 128 1.7 0.0 0.00 0.00 0.00 55 1011.4
20260905185421 84 234 0.9 0.0 0.00 0.00 0.00 54 1011.5
20260905184922 84 277 4.3 0.0 0.00 0.00 0.00 55 1011.5
20260905184421 84 270 5.2 0.0 0.00 0.00 0.00 54 1011.5
20260905183921 84 270 3.5 0.0 0.00 0.00 0.00 55 1011.6
20260905183422 83 255 3.5 0.0 0.00 0.00 0.00 55 1011.6
20260905182422 84 285 4.3 0.0 0.00 0.00 0.00 54 1011.8
20260905181921 83 242 5.2 0.0 0.00 0.00 0.00 55 1011.9
20260905181421 82 246 2.6 0.0 0.00 0.00 0.00 55 1011.9
20260905180922 83 300 3.5 0.0 0.00 0.00 0.00 55 1011.9
20260905180421 83 142 1.7 0.0 0.00 0.00 0.00 59 1011.9
20260905175921 83 285 4.3 0.0 0.00 0.00 0.00 56 1011.9
20260905175422 83 135 2.6 0.0 0.00 0.00 0.00 58 1011.9
20260905174921 81 250 1.7 0.0 0.00 0.00 0.00 61 1011.9
20260905174421 81 345 2.6 0.0 0.00 0.00 0.00 59 1011.9
20260905173922 82 270 3.5 0.0 0.00 0.00 0.00 58 1011.9
20260905173422 83 208 2.6 0.0 0.00 0.00 0.00 57 1011.9
20260905172922 84 270 1.7 0.0 0.00 0.00 0.00 56 1012.0
20260905172422 84 312 1.7 0.0 0.00 0.00 0.00 60 1012.0
20260905171922 83 257 5.2 0.0 0.00 0.00 0.00 58 1012.0
20260905171421 83 281 0.9 0.0 0.00 0.00 0.00 60 1012.2
20260905165922 83 252 3.5 0.0 0.00 0.00 0.00 60 1012.1
20260905164422 82 225 1.7 0.0 0.00 0.00 0.00 61 1012.3
20260905162921 83 105 2.6 0.0 0.00 0.00 0.00 58 1012.5
20260905162421 83 281 1.7 0.0 0.00 0.00 0.00 60 1012.6
20260905161922 82 290 1.7 0.0 0.00 0.00 0.00 62 1012.7
20260905160922 80 255 1.7 0.0 0.00 0.00 0.00 62 1012.7
20260905160422 80 277 3.5 0.0 0.00 0.00 0.00 66 1012.8
20260905155922 80 270 3.5 0.0 0.00 0.00 0.00 66 1012.9
20260905154921 81 285 2.6 0.0 0.00 0.00 0.00 64 1012.9
20260905154422 80 332 2.6 0.0 0.00 0.00 0.00 66 1012.9
20260905153921 79 263 1.7 0.0 0.00 0.00 0.00 69 1012.9
20260905152921 79 113 1.7 0.0 0.00 0.00 0.00 66 1012.8
20260905151421 79 293 1.7 0.0 0.00 0.00 0.00 66 1012.9
20260905150922 78 279 1.7 0.0 0.00 0.00 0.00 68 1012.9
20260905150421 79 255 0.0 0.0 0.00 0.00 0.00 68 1013.0
20260905145921 79 315 2.6 0.0 0.00 0.00 0.00 69 1012.9
20260905145422 79 167 1.7 0.0 0.00 0.00 0.00 69 1012.7
20260905144421 79 34 2.6 0.0 0.00 0.00 0.00 69 1012.8
20260905143921 78 270 0.9 0.0 0.00 0.00 0.00 70 1012.8
20260905143421 78 165 2.6 0.0 0.00 0.00 0.00 72 1012.7
20260905142921 79 180 1.7 0.0 0.00 0.00 0.00 70 1012.5
20260905142421 79 245 1.7 0.0 0.00 0.00 0.00 69 1012.5
20260905141922 78 135 0.9 0.0 0.00 0.00 0.00 72 1012.3
20260905141422 78 255 0.9 0.0 0.00 0.00 0.00 74 1012.3
20260905140922 78 240 0.9 0.0 0.00 0.00 0.00 74 1012.3
20260905140422 78 164 0.9 0.0 0.00 0.00 0.00 74 1012.4
20260905135921 78 146 0.9 0.0 0.00 0.00 0.00 74 1012.3
20260905135421 77 341 0.0 0.0 0.00 0.00 0.00 75 1012.4
20260905134921 76 257 0.9 0.0 0.00 0.00 0.00 76 1012.5
20260905133921 75 293 0.9 0.0 0.00 0.00 0.00 79 1012.7
20260905133422 75 225 0.0 0.0 0.00 0.00 0.00 80 1012.7
20260905132922 75 253 0.0 0.0 0.00 0.00 0.00 81 1012.8
20260905132421 74 263 2.6 0.0 0.00 0.00 0.00 81 1012.8
20260905131921 74 294 0.0 0.0 0.00 0.00 0.00 84 1012.9
20260905131421 74 228 0.0 0.0 0.00 0.00 0.00 83 1012.6
20260905130422 74 265 0.0 0.0 0.00 0.00 0.00 85 1012.7
20260905125922 74 285 0.0 0.0 0.00 0.00 0.00 82 1012.7
20260905124921 74 240 0.0 0.0 0.00 0.00 0.00 85 1012.4
20260905124422 73 218 0.0 0.0 0.00 0.00 0.00 85 1012.4
20260905123921 74 276 0.0 0.0 0.00 0.00 0.00 85 1012.4
20260905123421 74 263 0.0 0.0 0.00 0.00 0.00 87 1012.4
20260905122921 73 228 0.0 0.0 0.00 0.00 0.00 87 1012.3
20260905122421 74 235 0.0 0.0 0.00 0.00 0.00 87 1012.2
20260905121921 73 238 0.0 0.0 0.00 0.00 0.00 88 1012.4
20260905121421 73 184 0.0 0.0 0.00 0.00 0.00 89 1012.5
20260905120922 73 315 0.0 0.0 0.00 0.00 0.00 88 1012.5
20260905120422 73 218 0.0 0.0 0.00 0.00 0.00 88 1012.5
20260905115922 73 210 0.0 0.0 0.00 0.00 0.00 89 1012.4
20260905115421 72 248 0.0 0.0 0.00 0.00 0.00 89 1012.3
20260905114921 72 183 0.0 0.0 0.00 0.00 0.00 90 1012.3
20260905114421 71 210 0.0 0.0 0.00 0.00 0.00 91 1012.2
20260905113921 70 236 0.0 0.0 0.00 0.00 0.00 91 1012.0
20260905113421 70 259 0.0 0.0 0.00 0.00 0.00 95 1011.9
20260905112921 70 263 0.0 0.0 0.00 0.00 0.00 95 1012.0
20260905112421 70 218 0.0 0.0 0.00 0.00 0.00 95 1012.1
20260905111922 70 206 0.0 0.0 0.00 0.00 0.00 95 1012.0
20260905110921 69 248 0.0 0.0 0.00 0.00 0.00 95 1012.0
20260905110421 69 262 0.0 0.0 0.00 0.00 0.00 95 1012.0
20260905105921 69 259 0.0 0.0 0.00 0.00 0.00 95 1011.9
20260905105421 69 264 0.0 0.0 0.00 0.00 0.00 95 1011.9
20260905104921 69 270 0.0 0.0 0.00 0.00 0.00 95 1011.7
20260905104421 69 257 0.0 0.0 0.00 0.00 0.00 95 1011.8
20260905103421 69 255 0.0 0.0 0.00 0.00 0.00 94 1011.5
20260905102921 69 225 0.0 0.0 0.00 0.00 0.00 94 1011.5
20260905102421 69 263 0.0 0.0 0.00 0.00 0.00 94 1011.6
20260905101922 69 195 0.0 0.0 0.00 0.00 0.00 94 1011.4
20260905101422 69 240 0.0 0.0 0.00 0.00 0.00 94 1011.3
20260905100921 70 232 0.0 0.0 0.00 0.00 0.00 94 1011.3
20260905100421 70 271 0.0 0.0 0.00 0.00 0.00 93 1011.2
20260905095921 70 221 0.0 0.0 0.00 0.00 0.00 92 1011.3
20260905095422 70 232 0.0 0.0 0.00 0.00 0.00 93 1011.3
20260905094921 70 270 0.0 0.0 0.00 0.00 0.00 94 1011.2
20260905093922 70 173 0.0 0.0 0.00 0.00 0.00 95 1011.3
20260905093421 70 187 0.0 0.0 0.00 0.00 0.00 95 1011.2
20260905092921 70 270 0.0 0.0 0.00 0.00 0.00 95 1011.1
20260905092422 71 259 0.0 0.0 0.00 0.00 0.00 94 1011.0
20260905090921 71 153 0.0 0.0 0.00 0.00 0.00 93 1011.0
20260905090421 71 202 0.0 0.0 0.00 0.00 0.00 93 1011.1
20260905085921 71 248 0.0 0.0 0.00 0.00 0.00 91 1011.0
20260905085421 71 210 0.0 0.0 0.00 0.00 0.00 91 1010.9
20260905084421 72 300 0.0 0.0 0.00 0.00 0.00 90 1010.9
20260905083921 73 158 0.0 0.0 0.00 0.00 0.00 90 1011.0
20260905083421 73 248 0.0 0.0 0.00 0.00 0.00 90 1011.0
20260905082921 73 259 0.0 0.0 0.00 0.00 0.00 90 1011.0
20260905082421 73 259 0.0 0.0 0.00 0.00 0.00 89 1011.0
20260905081921 73 240 0.0 0.0 0.00 0.00 0.00 88 1011.1
20260905081421 73 153 0.0 0.0 0.00 0.00 0.00 87 1011.2
20260905080422 73 139 0.9 0.0 0.00 0.00 0.00 88 1011.3
20260905075921 73 134 0.0 0.0 0.00 0.00 0.00 88 1011.4
20260905074921 72 113 1.7 0.0 0.00 0.00 0.00 89 1011.3
20260905074421 72 281 0.0 0.0 0.00 0.00 0.00 91 1011.3
20260905073921 72 185 0.0 0.0 0.00 0.00 0.00 94 1011.4
20260905073421 72 255 0.0 0.0 0.00 0.00 0.00 95 1011.3
20260905072921 72 255 0.0 0.0 0.00 0.00 0.00 96 1011.3
20260905072421 72 150 0.0 0.0 0.00 0.00 0.00 96 1011.3
20260905071921 72 255 0.0 0.0 0.00 0.00 0.00 96 1011.2
20260905071421 72 173 0.0 0.0 0.00 0.00 0.00 96 1011.4
20260905070921 72 210 0.0 0.0 0.00 0.00 0.00 96 1011.4
20260905070421 72 242 0.0 0.0 0.00 0.00 0.00 96 1011.3
20260905065921 72 263 0.0 0.0 0.00 0.00 0.00 96 1011.3
20260905065421 71 263 0.0 0.0 0.00 0.00 0.00 96 1011.4
20260905064921 71 255 0.0 0.0 0.00 0.00 0.00 96 1011.4
20260905064421 72 270 0.0 0.0 0.00 0.00 0.00 96 1011.2
20260905063921 72 176 0.0 0.0 0.00 0.00 0.00 96 1011.2
20260905063421 72 222 0.0 0.0 0.00 0.00 0.00 96 1011.3
20260905062921 72 225 0.0 0.0 0.00 0.00 0.00 96 1011.3
20260905062421 72 210 0.0 0.0 0.00 0.00 0.00 96 1011.4
20260905061921 72 219 0.0 0.0 0.00 0.00 0.00 95 1011.4
20260905060921 72 255 0.0 0.0 0.00 0.00 0.00 95 1011.5
20260905060421 72 218 0.0 0.0 0.00 0.00 0.00 95 1011.5
20260905055921 72 240 0.0 0.0 0.00 0.00 0.00 95 1011.5
20260905055421 73 263 0.0 0.0 0.00 0.00 0.00 95 1011.6
20260905054921 73 240 0.0 0.0 0.00 0.00 0.00 95 1011.6
20260905054421 73 240 0.0 0.0 0.00 0.00 0.00 95 1011.6
20260905053921 73 172 0.0 0.0 0.00 0.00 0.00 95 1011.6
20260905053421 73 242 0.0 0.0 0.00 0.00 0.00 95 1011.8
20260905052921 73 231 0.0 0.0 0.00 0.00 0.00 95 1011.8
20260905052421 73 248 0.0 0.0 0.00 0.00 0.00 95 1011.9
20260905051921 73 240 0.0 0.0 0.00 0.00 0.00 95 1012.0
20260905050921 73 195 0.0 0.0 0.00 0.00 0.00 94 1012.0
20260905050421 73 225 0.0 0.0 0.00 0.00 0.00 94 1012.0
20260905045921 73 225 0.0 0.0 0.00 0.00 0.00 94 1012.1
20260905045422 73 255 0.0 0.0 0.00 0.00 0.00 95 1012.1
20260905044921 73 225 0.0 0.0 0.00 0.00 0.00 95 1012.0
20260905044421 73 214 0.0 0.0 0.00 0.00 0.00 95 1012.0
20260905043921 73 225 0.0 0.0 0.00 0.00 0.00 94 1012.1
20260905043421 74 248 0.0 0.0 0.00 0.00 0.00 94 1012.0
20260905042921 74 240 0.0 0.0 0.00 0.00 0.00 94 1012.0
20260905042424 74 270 0.0 0.0 0.00 0.00 0.00 94 1011.9
20260905041921 74 240 0.0 0.0 0.00 0.00 0.00 94 1012.0
20260905041421 74 255 0.0 0.0 0.00 0.00 0.00 94 1012.1
20260905040921 74 270 0.0 0.0 0.00 0.00 0.00 93 1012.1
20260905040421 74 150 0.0 0.0 0.00 0.00 0.00 93 1012.1